Location: Berkeley
(37.8716°N, 122.2727°W)
Time: 13:59:46
(UTC-07:00)

ISS - Visible Passes

Search period start: 21 September 2021 00:00
Search period end: 01 October 2021 00:00
Orbit: 419 x 423 km, 51.6° (Epoch: 21 September)

Date Brightness Start Highest point End Pass type
(mag) Time Alt. Az. Time Alt. Az. Time Alt. Az.
21 Sep -0.9 20:28:27 10° NW 20:29:57 12° NNW 20:31:29 10° N visible
22 Sep -1.1 19:40:39 10° WNW 19:42:50 16° NNW 19:45:00 10° NNE visible
27 Sep -1.0 20:40:26 10° N 20:40:55 10° NNE 20:40:55 10° NNE visible
29 Sep -1.3 20:42:13 10° NNW 20:43:36 15° N 20:43:36 15° N visible
30 Sep -1.4 19:55:42 10° N 19:57:22 13° NNE 19:58:30 12° NE visible
30 Sep -0.3 21:31:27 10° NW 21:31:30 10° NW 21:31:30 10° NW visible
